Regional Weather Roundup
Issued by NWS

Home | Current Version | Previous Version | Graphics & Text | Print | Product List | Glossary On
Versions: 1 2 3 4 5 6 7 8 9 10 11 12 13 14 15 16 17 18 19 20 21 22 23 24 25 26 27 28 29 30 31 32 33 34 35 36 37 38 39 40 41 42 43 44 45 46 47 48 49 50
000
ASUS43 KLMK 060602
RWRKY
KENTUCKY REGIONAL WEATHER ROUNDUP
NATIONAL WEATHER SERVICE LOUISVILLE KY
200 AM EDT WED MAY 06 2015

NOTE "FAIR" INDICATES FEW OR NO CLOUDS BELOW 12,000 FEET
WITH NO SIGNIFICANT WEATHER AND/OR OBSTRUCTIONS TO VISIBILITY.

KYZ001>023-026-027-061>063-070>075-060700-
WESTERN AND SOUTH CENTRAL KENTUCKY

CITY           SKY/WX    TMP DP  RH WIND       PRES   REMARKS
PADUCAH        CLEAR     60  55  83 CALM      30.17S
HENDERSON      CLEAR     59  52  77 CALM      30.18S
OWENSBORO      CLEAR     64  57  78 CALM      30.20R
HOPKINSVILLE   NOT AVBL
BOWLING GREEN  PTCLDY    62  57  83 CALM      30.21S
GLASGOW        NOT AVBL
$$

KYZ024-025-028>034-038-045-046-053-060700-
NORTH CENTRAL KENTUCKY

CITY           SKY/WX    TMP DP  RH WIND       PRES   REMARKS
LOUISVILLE/SDF PTCLDY    66  56  70 SE3       30.19F
LOUISVILLE/LOU CLEAR     64  55  72 CALM      30.20F
FORT KNOX      CLEAR     59  54  84 CALM      30.19S
$$

KYZ035>037-039>044-047>052-055>060-089>105-060700-
NORTHEAST KENTUCKY

CITY           SKY/WX    TMP DP  RH WIND       PRES   REMARKS
LEXINGTON      CLEAR     61  55  81 S5        30.23S
COVINGTON      CLEAR     59  56  89 S6        30.20F
FRANKFORT      CLEAR     58  53  84 CALM      30.21S
$$

KYZ054-064>069-076>088-106>120-060700-
SOUTHEAST KENTUCKY

CITY           SKY/WX    TMP DP  RH WIND       PRES   REMARKS
JACKSON        CLEAR     70  49  47 CALM      30.25S
LONDON         CLEAR     60  53  77 CALM      30.24F
SOMERSET       NOT AVBL
MIDDLESBORO    NOT AVBL
MONTICELLO     CLEAR     57  56  97 CALM      30.26F
$$




USA.gov is the U.S. government's official web portal to all federal, state and local government web resources and services.